Wind_Speed
3 3 5 5 6 8 9 9 10 9 9 9 9 8 7 7 8 7 6 6 5 5 4 4 4 5 5 4 3 1 2 5 6 7 9 10 11 11 11 12 11 11 11
3 4 4 4 5 5 6 7 8 8 7 7 8 7 8 8 7 7 7 6 6 4 3 3 3 4 4 2 2 1 3 6 8 8 9 10 10 11 11 12 12 11 12
6 4 1 3 5 5 4 4 5 7 7 6 7 7 7 9 8 7 6 6 6 6 4 5 3 2 2 2 2 1 3 6 8 10 10 11 11 11 11 11 15 12 13
6 5 3 3 5 6 4 4 6 6 7 7 7 8 8 8 7 7 6 6 5 5 6 5 3 2 3 3 2 1 3 5 8 10 11 10 12 11 11 11 12 12 12
4 4 4 6 7 7 7 7 7 7 7 7 7 8 9 9 9 8 8 7 5 5 6 5 4 2 3 3 3 2 3 5 8 10 11 11 13 12 11 11 11 10 9
8 8 10 11 12 12 12 11 11 11 10 9 8 8 9 10 10 10 9 9 8 6 7 5 5 3 3 4 5 5 3 5 8 12 13 12 13 13 11 9 10 10 9
10 11 13 15 16 16 17 16 15 15 14 13 12 11 10 11 11 11 10 9 8 8 8 6 5 5 4 4 6 7 4 5 8 12 15 15 9 9 5 3 3 8 8
9 9 12 14 15 17 19 20 19 18 17 16 16 14 13 12 12 12 11 10 9 9 9 7 6 4 4 4 6 7 6 4 7 12 17 17 10 10 14 10 9 11 14
6 6 10 10 11 12 14 16 18 20 20 20 19 17 16 14 14 13 13 12 11 11 10 9 8 5 4 4 5 6 5 5 7 12 17 20 17 17 16 15 14 17 16
9 8 9 10 11 13 12 13 14 15 17 19 20 20 21 19 16 15 14 13 12 13 12 11 10 8 6 5 5 6 5 5 8 11 15 20 19 20 22 22 17 19 21
10 10 9 9 11 10 10 13 14 14 15 15 17 19 22 22 22 19 17 16 15 15 15 13 12 11 9 7 7 7 5 5 7 10 12 14 16 20 25 25 25 24 19
9 10 11 10 9 11 11 13 15 14 15 15 15 15 16 21 24 24 22 20 19 18 17 16 15 13 12 11 9 10 8 6 6 9 11 11 17 18 15 19 23 22 19
8 9 9 10 11 10 11 11 13 14 15 15 16 17 17 17 19 24 26 25 23 21 19 19 18 16 14 14 12 11 9 8 8 7 10 16 16 18 20 17 13 19 20
12 11 10 10 11 11 10 10 12 12 13 14 16 17 18 18 19 19 22 27 28 26 23 22 21 20 18 17 17 16 13 14 10 11 10 11 16 20 17 18 15 17 19
14 14 13 12 11 12 10 11 11 12 13 14 15 16 17 18 19 20 20 21 24 28 28 26 24 24 22 21 21 19 17 16 15 15 15 13 13 15 19 19 15 18 19
19 17 17 15 14 14 13 13 12 13 14 14 15 17 18 19 19 19 20 22 22 23 26 26 27 26 24 24 23 23 22 24 17 18 18 16 12 14 14 17 17 18 19
21 21 19 19 19 17 17 17 16 15 15 15 15 15 16 18 20 21 21 20 23 24 24 29 27 28 29 27 26 25 26 28 28 25 27 22 18 14 13 15 15 17 19
23 23 23 23 22 22 21 21 21 20 18 18 17 17 17 17 18 19 21 23 24 25 26 27 29 29 29 29 29 28 28 29 31 30 27 26 28 21 17 14 14 15 18
22 23 24 23 23 24 26 25 25 25 23 22 20 19 19 19 19 20 20 22 24 26 28 28 29 31 33 31 31 30 30 30 30 30 31 30 30 25 21 19 16 14 16
25 23 23 24 25 27 29 29 28 28 28 27 26 23 23 22 20 21 22 23 23 24 26 29 30 32 33 34 36 33 32 33 33 33 32 32 30 31 24 22 19 17 17
31 34 25 22 28 29 30 32 33 32 32 31 30 28 26 25 24 23 24 24 24 24 26 27 29 31 34 33 35 38 39 35 36 36 35 32 35 32 31 32 33 22 19
33 34 34 34 33 30 33 33 34 35 35 34 33 31 30 29 28 26 25 25 26 26 26 27 28 29 31 33 36 37 40 43 42 39 43 41 34 37 38 34 26 24 23
35 36 39 39 40 40 38 38 38 39 37 36 34 34 33 32 30 29 27 26 26 27 27 27 28 29 30 31 34 37 41 44 42 42 38 39 41 41 38 37 35 29 31
36 37 38 40 41 42 44 44 40 41 42 39 38 38 36 33 31 30 29 28 27 27 26 27 29 29 31 31 32 35 38 41 42 45 49 49 43 39 38 33 28 29 28
36 38 39 41 43 43 41 42 43 39 39 38 38 37 35 34 32 32 31 30 30 30 31 28 28 30 32 33 33 34 36 39 42 42 45 46 46 43 36 36 42 36 39
30 32 34 35 35 35 39 35 34 37 35 35 35 36 36 36 33 31 29 28 29 31 31 31 30 30 32 34 35 36 37 40 41 43 44 42 42 43 47 41 43 39 37
Wind_Direction
149 124 116 110 127 149 155 169 178 188 186 181 175 177 179 178 168 164 153 144 150 166 202 237 256 270 275 281 280 250 144 134 125 128 132 135 136 138 143 142 132 141 135
154 156 128 123 145 158 162 171 180 190 192 190 192 187 186 182 175 181 181 177 182 195 212 260 274 274 270 263 285 249 145 136 139 147 143 142 140 140 137 137 132 132 136
176 178 170 169 173 169 172 190 194 196 201 207 212 211 206 193 190 194 201 205 215 216 242 244 244 251 233 255 294 283 177 158 157 154 154 150 144 144 140 143 125 131 137
175 203 206 197 187 188 194 218 219 216 213 215 221 229 220 212 202 196 203 205 220 232 233 255 241 226 230 254 273 249 201 169 167 162 156 155 147 148 148 149 143 144 136
167 175 189 205 213 220 225 227 228 228 231 232 229 226 228 227 229 224 219 218 225 244 226 236 258 227 239 255 267 245 204 179 171 171 161 163 152 150 152 156 158 163 160
251 247 245 242 238 240 241 240 238 237 242 243 242 235 240 238 237 237 236 235 246 232 230 223 246 242 242 249 268 269 218 180 173 177 165 162 154 143 145 157 164 168 178
260 256 254 253 250 247 247 246 244 241 239 241 246 243 241 245 241 241 239 237 245 226 218 228 243 257 258 262 264 272 257 208 178 174 169 151 129 111 140 127 160 148 158
280 266 257 256 257 256 250 248 246 245 243 244 247 247 246 244 247 244 240 239 244 225 221 225 232 250 266 259 261 266 272 226 191 173 177 146 149 159 166 165 157 165 187
292 268 268 268 265 267 264 258 252 248 249 250 246 243 245 246 244 242 239 236 237 232 227 228 228 231 242 259 259 263 272 247 205 187 180 159 159 179 179 181 187 195 215
295 282 274 275 275 270 267 267 261 259 256 253 249 244 242 243 246 246 241 233 229 234 233 236 233 231 235 241 249 259 254 237 223 206 187 185 174 191 197 196 207 215 220
315 303 285 270 271 265 261 263 264 261 258 256 255 251 246 243 242 243 242 238 234 232 233 232 235 238 238 236 243 252 251 226 227 220 199 199 197 222 216 214 222 220 217
313 306 302 285 261 257 258 260 264 264 263 261 258 255 251 248 244 241 241 240 236 236 236 235 238 238 236 238 245 251 248 232 226 225 219 214 199 230 243 246 235 236 236
301 304 300 294 286 271 260 252 254 258 263 265 263 261 258 251 247 245 243 244 245 242 240 241 242 244 239 237 237 238 245 242 235 230 232 232 203 225 251 248 248 237 237
292 292 294 292 288 279 273 260 256 256 256 260 264 264 262 259 257 250 247 245 242 244 243 240 241 241 237 237 236 239 243 252 257 252 246 242 245 231 236 254 244 239 240
282 282 284 284 283 281 274 267 261 261 259 257 258 261 262 260 257 256 255 248 247 242 240 243 243 244 243 239 237 237 238 242 255 258 257 248 247 243 230 246 249 245 246
281 282 282 281 279 281 279 275 269 266 262 260 260 261 262 263 262 257 255 255 252 240 233 238 242 241 241 241 239 238 237 241 240 236 249 253 242 250 246 248 252 251 247
279 280 285 281 278 277 278 277 274 268 267 263 262 261 261 262 262 264 261 257 256 255 245 234 235 239 240 243 243 241 237 238 244 249 251 252 246 248 249 254 262 259 254
272 272 279 279 276 274 273 272 272 271 266 263 262 264 265 264 262 259 261 262 258 256 254 249 242 241 243 243 242 244 244 242 246 249 250 246 252 253 250 256 266 271 271
274 275 280 276 271 269 270 270 270 271 272 267 264 262 263 263 265 265 261 258 259 260 257 254 249 246 246 245 242 242 246 247 246 248 250 248 247 248 250 255 255 266 276
248 254 278 275 271 267 267 267 265 264 265 266 266 265 265 264 263 267 266 262 258 256 258 258 256 253 249 248 248 244 242 247 248 249 248 249 249 250 251 247 250 258 261
256 257 247 249 273 270 267 266 264 262 260 261 260 259 260 261 261 263 266 267 264 259 256 256 257 256 254 252 250 248 244 242 245 249 248 248 250 252 255 261 258 257 256
249 252 250 247 242 250 260 259 260 258 257 258 259 257 256 255 259 262 260 261 264 262 259 257 258 258 256 254 252 250 249 246 244 248 252 250 255 255 255 249 248 243 262
255 254 244 244 248 248 241 250 255 256 255 254 254 251 250 251 255 258 259 259 260 261 260 259 258 258 259 255 253 252 252 251 249 247 246 252 254 251 251 262 249 250 256
254 247 242 245 248 254 258 254 247 252 253 251 249 247 246 248 249 254 257 259 261 263 262 259 260 260 259 259 256 254 255 256 255 249 246 250 251 257 249 243 243 256 250
240 238 239 244 249 254 259 259 255 251 254 249 245 245 243 244 243 250 255 259 262 263 264 261 260 260 260 259 259 258 256 255 255 251 254 249 249 244 250 256 245 254 244
243 239 241 244 242 246 252 254 249 245 242 242 240 239 238 237 239 245 248 252 257 260 262 261 260 260 261 261 258 256 256 257 257 256 258 257 256 252 245 243 245 249 246
Height
3164 3164 3165 3165 3166 3168 3168 3170 3171 3172 3173 3173 3174 3174 3174 3175 3175 3175 3176 3177 3176 3177 3176 3176 3176 3175 3175 3175 3174 3173 3173 3173 3173 3174 3176 3176 3177 3178 3179 3181 3181 3182 3183
3164 3165 3165 3166 3167 3168 3169 3170 3171 3172 3173 3174 3174 3174 3174 3175 3175 3176 3176 3176 3176 3176 3176 3175 3175 3175 3174 3174 3174 3173 3172 3172 3173 3175 3176 3178 3179 3180 3181 3182 3182 3183 3185
3163 3165 3165 3166 3167 3168 3169 3170 3170 3171 3172 3173 3174 3174 3175 3175 3175 3176 3176 3175 3176 3176 3176 3175 3175 3175 3174 3174 3173 3173 3173 3173 3174 3176 3177 3178 3179 3181 3182 3183 3184 3185 3186
3163 3164 3165 3166 3167 3168 3169 3169 3170 3170 3171 3171 3173 3173 3174 3174 3174 3175 3175 3175 3175 3176 3175 3175 3174 3174 3174 3174 3173 3173 3173 3174 3175 3176 3177 3178 3179 3181 3183 3184 3185 3186 3187
3163 3164 3165 3165 3166 3167 3167 3168 3169 3169 3170 3170 3171 3172 3173 3174 3174 3174 3174 3175 3175 3175 3175 3175 3174 3174 3174 3173 3173 3173 3174 3175 3175 3176 3177 3179 3180 3182 3184 3185 3186 3187 3188
3163 3163 3164 3164 3165 3165 3166 3166 3167 3168 3169 3169 3170 3171 3172 3172 3172 3173 3173 3174 3173 3173 3174 3174 3175 3174 3174 3173 3173 3173 3174 3175 3175 3176 3178 3180 3181 3182 3184 3186 3187 3188 3188
3160 3161 3162 3162 3162 3163 3164 3164 3165 3166 3167 3168 3168 3169 3170 3170 3171 3171 3172 3172 3172 3172 3172 3173 3174 3174 3174 3174 3173 3172 3173 3175 3176 3177 3178 3180 3182 3184 3186 3187 3187 3189 3190
3158 3159 3159 3160 3160 3160 3161 3162 3162 3163 3164 3165 3166 3167 3168 3168 3169 3169 3171 3171 3171 3172 3172 3172 3173 3173 3173 3174 3174 3173 3174 3175 3176 3177 3178 3180 3184 3186 3186 3188 3189 3190 3190
3155 3157 3157 3157 3158 3158 3158 3159 3159 3160 3161 3162 3163 3164 3165 3166 3167 3167 3168 3169 3170 3170 3171 3172 3172 3172 3173 3173 3173 3173 3174 3175 3176 3177 3179 3180 3183 3186 3187 3188 3188 3189 3189
3153 3154 3155 3155 3155 3156 3156 3156 3156 3157 3158 3158 3159 3160 3162 3163 3164 3165 3166 3167 3168 3169 3170 3171 3171 3171 3172 3172 3173 3173 3173 3174 3175 3176 3178 3180 3182 3184 3185 3186 3186 3187 3187
3152 3152 3152 3153 3153 3153 3154 3154 3154 3154 3155 3155 3156 3156 3157 3159 3160 3161 3163 3164 3165 3166 3167 3168 3170 3170 3171 3171 3172 3172 3173 3173 3174 3176 3177 3178 3181 3181 3183 3183 3184 3185 3185
3151 3150 3150 3150 3150 3150 3151 3151 3151 3152 3152 3152 3153 3153 3154 3155 3156 3158 3159 3160 3161 3163 3164 3166 3167 3168 3169 3170 3170 3171 3172 3172 3173 3174 3176 3177 3179 3179 3180 3181 3181 3182 3183
3150 3149 3148 3147 3147 3147 3147 3148 3147 3148 3148 3149 3150 3150 3151 3151 3151 3153 3155 3156 3158 3160 3161 3163 3164 3166 3167 3168 3169 3169 3170 3171 3172 3173 3174 3175 3177 3178 3178 3178 3179 3180 3181
3148 3147 3147 3145 3145 3144 3144 3145 3145 3145 3145 3145 3146 3147 3147 3148 3148 3149 3150 3151 3153 3155 3157 3158 3160 3161 3163 3164 3166 3167 3167 3169 3170 3171 3172 3173 3174 3175 3176 3175 3176 3177 3179
3145 3145 3145 3144 3143 3143 3142 3141 3141 3142 3142 3142 3141 3142 3144 3144 3145 3146 3146 3146 3147 3150 3152 3154 3156 3157 3159 3160 3162 3163 3164 3165 3167 3168 3169 3170 3171 3171 3172 3172 3172 3174 3176
3142 3142 3141 3141 3141 3140 3140 3139 3139 3138 3138 3138 3138 3138 3138 3139 3140 3141 3142 3143 3143 3144 3147 3149 3151 3152 3154 3155 3156 3158 3160 3160 3162 3163 3166 3167 3167 3168 3168 3169 3170 3170 3172
3138 3137 3137 3137 3137 3136 3136 3136 3136 3135 3135 3135 3134 3134 3134 3134 3135 3136 3137 3138 3138 3140 3141 3142 3144 3146 3148 3150 3152 3153 3155 3156 3157 3158 3161 3163 3164 3165 3166 3166 3167 3167 3168
3133 3133 3132 3132 3133 3132 3132 3132 3132 3131 3131 3130 3130 3130 3131 3130 3130 3131 3131 3132 3133 3134 3135 3137 3139 3140 3142 3144 3146 3148 3150 3151 3152 3154 3155 3157 3159 3161 3162 3162 3163 3164 3164
3127 3126 3126 3126 3126 3125 3125 3126 3126 3126 3126 3126 3126 3125 3125 3126 3126 3126 3126 3126 3126 3127 3129 3130 3132 3134 3136 3137 3140 3141 3142 3144 3146 3147 3149 3151 3153 3155 3157 3158 3159 3160 3161
3112 3112 3118 3119 3119 3118 3117 3118 3118 3118 3119 3119 3119 3119 3119 3119 3120 3121 3121 3120 3120 3121 3121 3122 3125 3126 3128 3130 3132 3134 3135 3137 3138 3139 3142 3144 3146 3148 3148 3152 3154 3155 3156
3106 3107 3106 3104 3109 3109 3109 3109 3110 3110 3110 3111 3111 3111 3112 3113 3114 3114 3115 3114 3114 3114 3115 3115 3117 3118 3120 3123 3123 3125 3127 3129 3130 3131 3134 3137 3139 3141 3143 3145 3148 3148 3150
3096 3097 3097 3096 3093 3095 3098 3098 3098 3100 3101 3103 3103 3103 3104 3105 3106 3107 3108 3108 3108 3108 3108 3109 3109 3110 3112 3115 3115 3116 3116 3120 3122 3124 3126 3129 3131 3135 3136 3140 3141 3144 3146
3088 3088 3087 3086 3085 3084 3080 3084 3087 3088 3090 3092 3093 3093 3094 3096 3097 3098 3100 3101 3101 3101 3102 3102 3103 3103 3105 3106 3107 3109 3108 3107 3113 3117 3118 3121 3124 3127 3131 3132 3136 3138 3139
3081 3079 3078 3077 3076 3075 3074 3074 3072 3075 3077 3080 3081 3081 3084 3086 3088 3089 3091 3092 3093 3094 3094 3094 3094 3096 3097 3098 3099 3100 3101 3102 3103 3107 3110 3113 3116 3118 3121 3124 3127 3130 3132
3070 3069 3068 3067 3066 3065 3064 3064 3064 3064 3066 3068 3070 3072 3075 3077 3079 3080 3081 3083 3084 3084 3086 3086 3086 3086 3088 3090 3091 3092 3093 3093 3094 3096 3098 3103 3105 3109 3112 3115 3120 3121 3125
3061 3060 3059 3058 3057 3056 3055 3055 3054 3053 3053 3056 3058 3061 3064 3066 3069 3071 3073 3074 3075 3075 3077 3077 3077 3078 3079 3080 3082 3084 3085 3085 3086 3087 3088 3091 3095 3098 3101 3105 3109 3112 3115